EW3861 Weather Reports


time (UTC)temp
F
wind
direction
speed
knots
gust
knots
rain 1hr
in
rain 24hr
in
rain mn
in
humidity
%
barometer
mb
20260505204631 71 221 0.0 0.0 0.00 0.00 0.00 56 1007.3
20260505203055 71 207 0.0 0.0 0.00 0.00 0.00 55 1007.5
20260505201511 70 233 0.0 0.0 0.00 0.00 0.00 55 1007.5
20260505200104 72 230 0.0 0.0 0.00 0.00 0.00 55 1007.5
20260505194534 71 204 0.0 0.0 0.00 0.00 0.00 54 1007.5
20260505193126 72 219 0.0 0.0 0.00 0.00 0.00 54 1007.7
20260505191606 73 238 0.0 0.0 0.00 0.00 0.00 53 1007.5
20260505190012 74 231 0.0 0.0 0.00 0.00 0.00 51 1007.7
20260505184636 76 204 0.0 0.0 0.00 0.00 0.00 49 1007.5
20260505183051 76 220 0.0 0.0 0.00 0.00 0.00 50 1007.5
20260505181512 75 226 0.0 0.0 0.00 0.00 0.00 51 1007.9
20260505180010 74 221 0.0 0.0 0.00 0.00 0.00 53 1008.0
20260505174612 74 294 0.0 0.0 0.00 0.00 0.00 52 1008.2
20260505173021 75 272 0.0 0.0 0.00 0.00 0.00 52 1008.5
20260505171611 74 222 0.0 0.0 0.00 0.00 0.00 57 1008.4
20260505170025 73 202 0.0 0.0 0.00 0.00 0.00 56 1008.5
20260505164632 73 153 0.0 0.0 0.00 0.00 0.00 58 1008.8
20260505163046 73 229 0.0 0.0 0.00 0.00 0.00 56 1008.9
20260505161508 73 196 0.0 0.0 0.00 0.00 0.00 57 1009.0
20260505153125 70 235 0.0 0.0 0.00 0.00 0.00 60 1009.1
20260505151546 69 219 0.0 0.0 0.00 0.00 0.00 61 1009.1
20260505140111 64 229 0.0 0.0 0.00 0.00 0.00 69 1009.6
20260505124512 59 229 0.0 0.0 0.00 0.00 0.00 80 1010.0
20260505123100 57 219 0.0 0.0 0.00 0.00 0.00 82 1010.0
20260505121517 55 234 0.0 0.0 0.00 0.00 0.00 84 1009.8
20260505120109 54 242 0.0 0.0 0.00 0.00 0.00 87 1009.8
20260505114521 53 206 0.0 0.0 0.00 0.00 0.00 90 1009.9
20260505113113 52 237 0.0 0.0 0.00 0.00 0.00 93 1009.9
20260505111529 50 211 0.0 0.0 0.00 0.00 0.00 95 1009.9
20260505101610 47 211 0.0 0.0 0.00 0.00 0.00 94 1009.5
20260505100052 47 211 0.0 0.0 0.00 0.00 0.00 94 1009.6
20260505094629 47 211 0.0 0.0 0.00 0.00 0.00 94 1009.6
20260505093101 47 211 0.0 0.0 0.00 0.00 0.00 94 1009.7
20260505091513 47 211 0.0 0.0 0.00 0.00 0.00 93 1009.8
20260505090108 47 211 0.0 0.0 0.00 0.00 0.00 93 1009.8
20260505084545 46 211 0.0 0.0 0.00 0.00 0.00 92 1009.8
20260505083051 46 211 0.0 0.0 0.00 0.00 0.00 91 1009.9
20260505081505 47 211 0.0 0.0 0.00 0.00 0.00 91 1009.9
20260505074550 47 211 0.0 0.0 0.00 0.00 0.00 90 1009.9
20260505073028 47 211 0.0 0.0 0.00 0.00 0.00 89 1010.0
20260505071554 48 211 0.0 0.0 0.00 0.00 0.00 89 1010.0
20260505070006 48 211 0.0 0.0 0.00 0.00 0.00 88 1010.0
20260505064602 48 211 0.0 0.0 0.00 0.00 0.00 88 1010.0
20260505063017 49 211 0.0 0.0 0.00 0.00 0.00 88 1010.2
20260505061601 49 212 0.0 0.0 0.00 0.00 0.00 87 1010.2
20260505060016 49 213 0.0 0.0 0.00 0.00 0.00 87 1010.2
20260505054635 50 215 0.0 0.0 0.00 0.00 0.00 87 1010.2
20260505053044 50 215 0.0 0.0 0.00 0.00 0.00 86 1010.2
20260505051633 50 213 0.0 0.0 0.00 0.00 0.00 85 1010.2
20260505041522 51 219 0.0 0.0 0.00 0.00 0.00 81 1010.5
20260505040009 51 216 0.0 0.0 0.00 0.00 0.00 80 1010.4
20260505034635 52 227 0.0 0.0 0.00 0.00 0.00 79 1010.4
20260505033054 52 219 0.0 0.0 0.00 0.00 0.00 78 1010.2
20260505031509 52 224 0.0 0.0 0.00 0.00 0.00 77 1010.3
20260505030110 53 229 0.0 0.0 0.00 0.00 0.00 76 1010.4
20260505024551 53 217 0.0 0.0 0.00 0.00 0.00 75 1010.4
20260505023010 54 220 0.0 0.0 0.00 0.00 0.00 74 1010.4
20260505021600 54 220 0.0 0.0 0.00 0.00 0.00 72 1010.5
20260505020028 54 213 0.0 0.0 0.00 0.00 0.00 71 1010.5
20260505014508 55 209 0.0 0.0 0.00 0.00 0.00 69 1010.4
20260505013101 55 227 0.0 0.0 0.00 0.00 0.00 67 1010.3
20260505011522 56 244 0.0 0.0 0.00 0.00 0.00 64 1010.1
20260505010119 56 229 0.0 0.0 0.00 0.00 0.00 62 1009.8
20260505004533 57 213 0.0 0.0 0.00 0.00 0.00 61 1009.5
20260505003126 57 211 0.0 0.0 0.00 0.00 0.00 60 1009.1
20260505001541 58 221 0.0 0.0 0.00 0.00 0.00 58 1008.9
20260505000008 58 208 0.0 0.0 0.00 0.00 0.00 57 1008.5
20260504234617 59 245 0.0 0.0 0.00 0.00 0.00 56 1008.4
20260504233041 60 205 0.0 0.0 0.00 0.00 0.00 54 1008.2
20260504231630 61 290 0.0 0.0 0.00 0.00 0.00 51 1008.0
20260504230057 62 219 0.0 0.0 0.00 0.00 0.00 50 1007.6
20260504224512 64 200 0.0 0.0 0.00 0.00 0.00 48 1007.3
20260504223107 65 217 0.0 0.0 0.00 0.00 0.00 45 1007.3
20260504221537 65 154 0.0 0.0 0.00 0.00 0.00 44 1007.2
20260504220110 66 234 0.0 0.0 0.00 0.00 0.00 44 1007.1
20260504214544 67 202 0.0 0.0 0.00 0.00 0.00 42 1007.1
20260504213004 68 188 0.0 0.0 0.00 0.00 0.00 39 1006.9
20260504211552 68 217 0.0 0.0 0.00 0.00 0.00 40 1006.8
20260504210004 69 221 0.0 0.0 0.00 0.00 0.00 38 1006.7